Location: Unspecified
(45.3830°N, 0.0000°E)
Time: 03:13:05
(UTC+00:00)

Transit 4A - All Passes

Search period start: 04 April 2026 00:00
Search period end: 14 April 2026 00:00
Orbit: 863 x 978 km, 66.8° (Epoch: 29 March)

Date Brightness Start Highest point End Pass type
(mag) Time Alt. Az. Time Alt. Az. Time Alt. Az.
4 Apr - 00:01:47 10° NNW 00:06:14 19° NNE 00:10:43 10° ENE visible
4 Apr - 01:47:27 10° NNW 01:53:48 67° NE 02:00:11 10° SE visible
4 Apr - 03:34:36 10° NW 03:39:39 25° WSW 03:44:42 10° SSW visible
4 Apr - 16:56:00 10° SSW 17:01:50 57° ESE 17:07:52 10° NE daylight
4 Apr - 18:43:07 10° WSW 18:48:30 33° NW 18:54:04 10° NNE daylight
4 Apr - 20:34:35 10° NW 20:36:58 12° NNW 20:39:22 10° N visible
4 Apr - 22:25:19 10° N 22:26:31 10° N 22:27:44 10° NNE visible
5 Apr - 00:10:21 10° NNW 00:15:24 24° NE 00:20:30 10° E visible
5 Apr - 01:56:11 10° NNW 02:02:36 90° ENE 02:09:01 10° SSE visible
5 Apr - 03:44:09 10° WNW 03:48:06 17° WSW 03:52:03 10° SW visible
5 Apr - 15:22:29 10° SE 15:25:14 13° E 15:28:01 10° ENE daylight
5 Apr - 17:04:31 10° SSW 17:10:30 80° ESE 17:16:43 10° NE daylight
5 Apr - 18:52:36 10° W 18:57:34 25° NW 19:02:40 10° NNE visible
5 Apr - 20:44:58 10° NNW 20:46:22 11° NNW 20:47:47 10° N visible
5 Apr - 22:33:40 10° N 22:35:55 12° NNE 22:38:11 10° NE visible
6 Apr - 00:18:55 10° NNW 00:24:30 31° NE 00:30:05 10° ESE visible
6 Apr - 02:05:00 10° NW 02:11:19 66° WSW 02:17:38 10° SSE visible
6 Apr - 03:54:47 10° W 03:56:28 11° W 03:58:10 10° WSW visible
6 Apr - 15:29:23 10° SSE 15:33:38 20° ESE 15:37:58 10° ENE daylight
6 Apr - 17:13:16 10° SW 17:19:15 74° NW 17:25:30 10° NNE daylight
6 Apr - 19:02:16 10° W 19:06:42 20° NNW 19:11:14 10° NNE visible
6 Apr - 22:42:08 10° N 22:45:17 14° NNE 22:48:27 10° NE visible
7 Apr - 00:27:32 10° NNW 00:33:31 40° NE 00:39:29 10° ESE visible
7 Apr - 02:13:54 10° NW 02:19:58 47° WSW 02:26:02 10° S visible
7 Apr - 15:37:00 10° SSE 15:42:06 30° ESE 15:47:20 10° NE daylight
7 Apr - 17:22:13 10° SW 17:28:05 54° NW 17:34:12 10° NNE daylight
7 Apr - 19:12:08 10° WNW 19:15:56 16° NNW 19:19:47 10° N visible
7 Apr - 22:50:39 10° N 22:54:35 17° NNE 22:58:32 10° ENE visible
8 Apr - 00:36:12 10° NNW 00:42:26 53° NE 00:48:41 10° SE visible
8 Apr - 02:22:57 10° NW 02:28:33 33° WSW 02:34:08 10° S visible
8 Apr - 15:45:03 10° S 15:50:38 43° ESE 15:56:25 10° NE daylight
8 Apr - 17:31:21 10° WSW 17:37:01 40° NW 17:42:52 10° NNE daylight
8 Apr - 19:22:10 10° NW 19:25:13 14° NNW 19:28:18 10° N visible
8 Apr - 22:59:11 10° NNW 23:03:48 20° NNE 23:08:27 10° E visible
9 Apr - 00:44:53 10° NNW 00:51:17 72° NE 00:57:40 10° SE visible
9 Apr - 02:32:12 10° WNW 02:37:03 23° WSW 02:41:52 10° SSW visible
9 Apr - 15:53:22 10° SSW 15:59:15 62° ESE 16:05:22 10° NE daylight
9 Apr - 17:40:42 10° WSW 17:46:01 31° NW 17:51:29 10° NNE daylight
9 Apr - 19:32:23 10° NW 19:34:35 12° NNW 19:36:47 10° N visible
9 Apr - 21:22:37 10° N 21:24:08 11° NNE 21:25:40 10° NNE visible
9 Apr - 23:07:44 10° NNW 23:12:57 26° NE 23:18:11 10° E visible
10 Apr - 00:53:39 10° NNW 01:00:04 84° WSW 01:06:28 10° SSE visible
10 Apr - 02:41:54 10° WNW 02:45:28 16° WSW 02:49:03 10° SW visible
10 Apr - 14:19:21 10° SE 14:22:35 15° ESE 14:25:53 10° ENE daylight
10 Apr - 16:01:56 10° SSW 16:07:56 87° SE 16:14:12 10° NNE daylight
10 Apr - 17:50:14 10° W 17:55:06 24° NW 18:00:05 10° NNE daylight
10 Apr - 19:42:48 10° NNW 19:43:59 10° N 19:45:10 10° N visible
10 Apr - 21:31:01 10° N 21:33:31 12° NNE 21:36:03 10° NE visible
10 Apr - 23:16:20 10° NNW 23:22:01 33° NE 23:27:43 10° ESE visible
11 Apr - 01:02:28 10° NW 01:08:46 61° WSW 01:15:02 10° SSE visible
11 Apr - 14:26:30 10° SSE 14:31:00 23° ESE 14:35:36 10° ENE daylight
11 Apr - 16:10:43 10° SW 16:16:43 69° NW 16:22:57 10° NNE daylight
11 Apr - 17:59:57 10° WNW 18:04:15 19° NNW 18:08:40 10° NNE daylight
11 Apr - 21:39:30 10° N 21:42:52 14° NNE 21:46:15 10° NE visible
11 Apr - 23:24:57 10° NNW 23:31:01 43° NE 23:37:03 10° ESE visible
12 Apr - 01:11:25 10° NW 01:17:23 43° WSW 01:23:21 10° S visible
12 Apr - 14:34:13 10° S 14:39:29 33° ESE 14:44:54 10° NE daylight
12 Apr - 16:19:43 10° SW 16:25:34 50° NW 16:31:39 10° NNE daylight
12 Apr - 18:09:52 10° WNW 18:13:30 16° NNW 18:17:12 10° N daylight
12 Apr - 21:48:02 10° NNW 21:52:09 18° NNE 21:56:17 10° ENE visible
12 Apr - 23:33:37 10° NNW 23:39:55 57° NE 23:46:13 10° SE visible
13 Apr - 01:20:30 10° NW 01:25:57 30° WSW 01:31:22 10° SSW visible
13 Apr - 14:42:20 10° S 14:48:02 47° ESE 14:53:57 10° NE daylight
13 Apr - 16:28:55 10° WSW 16:34:31 38° NW 16:40:18 10° NNE daylight
13 Apr - 18:19:55 10° NW 18:22:48 13° NNW 18:25:43 10° N daylight
13 Apr - 20:11:43 10° N 20:12:19 10° N 20:12:54 10° NNE visible
13 Apr - 21:56:34 10° NNW 22:01:21 22° NE 22:06:09 10° E visible
13 Apr - 23:42:20 10° NNW 23:48:45 77° NE 23:55:10 10° SE visible
